Home   Weather   St. John's   Past weeks

Flag for Canada Past Weather in St. John's, Newfoundland and Labrador, Canada — Yesterday and Last 2 Weeks

Now
45 °F

Light rain. Low clouds.


Feels Like: 36 °F
Forecast: 45 / 56 °F
Wind: 23 mph from North

Location: St. John's

Current Time: Sep 29, 2016 at 11:03:38 PM

Latest Report: Sep 29, 2016 at 10:30 PM


Visibility: 10 mi

Pressure: 30.07 "Hg

Humidity: 100%

Dew Point: 45 °F

Location of St. John'sLocation

Past Weather in St. John's — Graph

°F

St. John's Temperature Yesterday

Maximum temperature yesterday: 48 °F (at 12:30 PM)
Minimum temperature yesterday: 39 °F (at 4:30 AM)
Average temperature yesterday: 45 °F

High & Low Weather Summary for the Past Weeks

 TemperatureHumidityPressure
High68 °F (Sep 21, 1:30 PM)100% (Sep 19, 1:30 AM)30.57 "Hg (Sep 19, 1:30 AM)
Low36 °F (Sep 25, 4:30 AM)47% (Sep 16, 12:30 PM)29.57 "Hg (Sep 25, 4:30 PM)
Average51 °F86%29.99 "Hg
* Reported Sep 14 9:30 PM — Sep 29 9:30 PM, St. John's, Weather by CustomWeather, © 2016

Note: Actual official high and low records may vary slightly from our data, if they occured in-between our weather recording intervals... More about our weather records

Advertising

St. John's Weather History for the Previous 24 Hours

Scroll right to see more
 ConditionsComfort  
Time TempWeatherWind HumidityBarometerVisibility
9:30 PM
Thu, Sep 29
46 °FRain. Fog.21 mph100%30.04 "Hg5 mi
8:30 PM52 °FRain. Low clouds.8 mph100%30.06 "Hg15 mi
7:30 PM50 °FLight rain. Fog.3 mph100%30.08 "Hg1 mi
6:30 PM50 °FLight rain. Fog.7 mph100%30.14 "Hg0 mi
6:15 PM50 °FLight rain. Fog.7 mph100%30.16 "Hg0 mi
5:30 PM50 °FRain. Fog.9 mph100%30.20 "Hg1 mi
4:30 PM50 °FRain. Fog.13 mph94%30.24 "Hg1 mi
3:30 PM48 °FRain. Fog.18 mph100%30.29 "Hg1 mi
2:30 PM48 °FRain. Fog.17 mph100%30.32 "Hg1 mi
1:30 PM48 °FLight rain. Fog.17 mph94%30.36 "Hg1 mi
12:30 PM46 °FLight rain. Fog.15 mph100%30.40 "Hg5 mi
11:30 AM46 °FLight rain. Low clouds.16 mph93%30.44 "Hg8 mi
10:30 AM46 °FLight rain. Overcast.16 mph93%30.47 "Hg8 mi
9:30 AM46 °FLight rain. Low clouds.17 mph100%30.48 "Hg10 mi
8:30 AM46 °FLight rain. Low clouds.13 mph93%30.49 "Hg10 mi
7:30 AM46 °FOvercast.15 mph93%30.49 "Hg15 mi
6:30 AM46 °FMostly cloudy.14 mph93%30.51 "Hg15 mi
5:30 AM46 °FMostly cloudy.12 mph87%30.53 "Hg15 mi
4:30 AM46 °FMostly cloudy.13 mph87%30.53 "Hg15 mi
3:30 AM46 °FMostly cloudy.10 mph87%30.54 "Hg15 mi
2:30 AM46 °FMostly cloudy.9 mph87%30.55 "Hg15 mi
1:30 AM46 °FMostly cloudy.8 mph87%30.56 "Hg15 mi
12:30 AM45 °FMostly cloudy.8 mph93%30.56 "Hg15 mi
11:30 PM
Wed, Sep 28
45 °FOvercast.8 mph87%30.57 "Hg15 mi
Weather by CustomWeather, © 2016

See weather overviewHow to use our weather pages